Regional Weather Roundup
Issued by NWS Jackson, KY

Home | Current Version | Previous Version | Text Only | Print | Product List | Glossary Off
Versions: 1 2 3 4 5 6 7 8 9 10 11 12 13 14 15 16 17 18 19 20 21 22 23 24 25 26 27

000
ASUS43 KJKL 260810
RWRJKL

EAST KENTUCKY HOURLY WEATHER ROUNDUP
NATIONAL WEATHER SERVICE JACKSON KY
400 AM EDT TUE SEP 26 2017

NOTE: "FAIR" INDICATES FEW OR NO CLOUDS BELOW 12,000 FEET WITH
NO SIGNIFICANT WEATHER AND/OR OBSTRUCTIONS TO VISIBILITY.

* THESE REPORTS ARE NOT UNDER NWS QUALITY CONTROL AND MAY NOT
  REPORT WEATHER SUCH AS PRECIPITATION AND FOG.

KYZ079-080-083-085-087-088-110-112-115-119-120-260900
...EASTERN KENTUCKY...

CITY           SKY/WX    TMP DP  RH WIND       PRES   REMARKS
JACKSON        CLEAR     68  63  84 CALM      30.02F
LONDON         CLEAR     61  59  93 CALM      30.02R
SOMERSET*      CLEAR     59  59 100 CALM      30.02S
MONTICELLO*    PTCLDY    57  57 100 N9        30.03S FOG
WILLIAMSBURG*  CLOUDY    57  57 100 CALM      30.01F VSB 3/4
MIDDLESBORO*   FOG       61  61 100 CALM      30.04F VSB<1/4
HARLAN APT*    CLOUDY    61  61 100 CALM      30.05S VSB 1/2
PIKE CO APT*     N/A     65  65 100 CALM      30.03S
BIG SANDY APT* SUNNY     64  64 100 CALM      30.03R
MOREHEAD APT*  SUNNY     64  63  94 CALM      30.03S
$$

KYZ035-036-041-042-044-050-067-078-099-260900
...CENTRAL KENTUCKY...

CITY           SKY/WX    TMP DP  RH WIND       PRES   REMARKS
MT STERLING*   CLEAR     61  59  94 CALM      30.03S
FLEMING/MASON* CLEAR     64  64 100 E3        30.02F
DANVILLE*      CLEAR     61  59  94 CALM      30.03R
LEXINGTON      CLEAR     64  60  87 CALM      30.01S
FRANKFORT      CLEAR     63  60  90 N3        30.00R
LOUISVILLE     CLEAR     71  66  84 SE3       29.99S
LEBANON*         N/A     64  63  94 CALM      30.01S
GLASGOW*       CLEAR    N/A N/A N/A CALM      29.99S HAZE
BOWLING GREEN  PTCLDY    66  66 100 CALM      29.98S FOG
$$

KYZ091>093-OHZ055-061-077-WVZ005-015-034-035-042-260900
...SOUTHERN OHIO/WEST VIRGINIA...

CITY           SKY/WX    TMP DP  RH WIND       PRES   REMARKS
COVINGTON      CLEAR     65  65 100 CALM      30.01S
COLUMBUS       CLEAR     66  65  96 CALM      30.01S
DAYTON         CLEAR     67  61  81 CALM      30.03S
WILMINGTON     CLEAR     62  62 100 SE3       30.02S
HUNTINGTON     CLEAR     64  62  93 CALM      30.00F FOG
CHARLESTON     PTCLDY    62  61  96 CALM      30.01S
PINEVILLE*     CLEAR     58  57  95 MISG      30.10S
BECKLEY        CLEAR     58  57  97 CALM      30.09R
BLUEFIELD      CLEAR     60  58  92 SE3       30.10S
LOGAN CO APT*    N/A     64  63  94 CALM      30.04R
$$

VAZ002-007-008-TNZ017-027-036-066-071-260900
...SOUTHWEST VIRGINIA/EAST TENNESSEE...

CITY           SKY/WX    TMP DP  RH WIND       PRES   REMARKS
WISE*          PTCLDY    66  57  72 CALM      30.10S
JONESVILLE*      N/A     57  57 100 CALM      30.06R
ABINGDON*      CLEAR     63  61  93 CALM      30.06F
BRISTOL        PTCLDY    60  60 100 CALM      30.03F
MORRISTOWN*    SUNNY     64  59  82 CALM      30.00S
SEVIERVILLE*   SUNNY     59  57  94 CALM      29.99F
KNOXVILLE      CLEAR     65  60  84 CALM      29.99S
LAFOLLETTE*    SUNNY     61  61 100 CALM      30.04S
OAK RIDGE      CLEAR     64  61  90 CALM      30.01S
CROSSVILLE     CLEAR     60  59  96 CALM      30.04S
NASHVILLE      CLEAR     69  66  90 CALM      29.97F
$$

...KEY TO REMARKS...
VSB - VISIBILITY IN MILES
WCI - WIND CHILL INDEX
HX  - HEAT INDEX

$$




USA.gov is the U.S. government's official web portal to all federal, state and local government web resources and services.